Location: Unspecified
(51.5147°N, 7.4673°E)
Time: 11:02:02
(UTC+01:00)

Injun/Solrad 3 - All Passes

Search period start: 19 February 2026 00:00
Search period end: 01 March 2026 00:00
Orbit: 873 x 983 km, 66.8° (Epoch: 19 February)

Date Brightness Start Highest point End Pass type
(mag) Time Alt. Az. Time Alt. Az. Time Alt. Az.
19 Feb - 10:31:27 10° SSE 10:35:58 24° ESE 10:40:32 10° ENE daylight
19 Feb - 12:15:57 10° SW 12:21:48 79° NW 12:27:50 10° NE daylight
19 Feb - 14:04:12 10° W 14:09:12 28° NNW 14:14:21 10° NNE daylight
19 Feb - 15:53:37 10° NW 15:57:46 19° N 16:02:00 10° NE daylight
19 Feb - 17:41:08 10° NNW 17:46:19 28° NNE 17:51:35 10° E daylight
19 Feb - 19:27:34 10° NW 19:33:44 78° NE 19:40:03 10° SE visible
19 Feb - 21:14:43 10° NW 21:19:42 26° WSW 21:24:46 10° SSW visible
20 Feb - 10:41:32 10° S 10:46:43 34° ESE 10:52:00 10° NE daylight
20 Feb - 12:27:09 10° SW 12:32:56 59° NW 12:38:53 10° NE daylight
20 Feb - 14:15:57 10° WNW 14:20:40 24° NNW 14:25:29 10° NNE daylight
20 Feb - 16:05:05 10° NW 16:09:20 19° N 16:13:40 10° NE daylight
20 Feb - 17:52:12 10° NNW 17:57:42 34° NNE 18:03:19 10° E daylight
20 Feb - 19:38:38 10° NW 19:44:47 79° SW 19:51:05 10° SSE visible
20 Feb - 21:26:25 10° WNW 21:30:24 18° WSW 21:34:28 10° SW visible
21 Feb - 10:51:58 10° S 10:57:33 49° ESE 11:03:16 10° NE daylight
21 Feb - 12:38:31 10° WSW 12:44:08 45° NW 12:49:55 10° NNE daylight
21 Feb - 14:27:43 10° WNW 14:32:10 21° NNW 14:36:42 10° NE daylight
21 Feb - 16:16:26 10° NW 16:20:54 21° NNE 16:25:26 10° ENE daylight
21 Feb - 18:03:13 10° NNW 18:09:00 42° NE 18:14:56 10° ESE daylight
21 Feb - 19:49:44 10° NW 19:55:46 58° WSW 20:01:56 10° SSE visible
21 Feb - 21:38:54 10° W 21:41:03 12° W 21:43:12 10° WSW visible
22 Feb - 09:20:16 10° SE 09:23:07 14° ESE 09:26:00 10° ENE daylight
22 Feb - 11:02:41 10° SSW 11:08:29 69° ESE 11:14:26 10° NE daylight
22 Feb - 12:50:01 10° W 12:55:25 36° NW 13:00:58 10° NNE daylight
22 Feb - 14:39:28 10° NW 14:43:43 20° N 14:48:02 10° NE daylight
22 Feb - 16:27:40 10° NNW 16:32:25 23° NNE 16:37:15 10° ENE daylight
22 Feb - 18:14:14 10° NW 18:20:15 54° NE 18:26:24 10° ESE daylight
22 Feb - 20:00:57 10° NW 20:06:40 41° WSW 20:12:31 10° S visible
23 Feb - 09:29:33 10° SSE 09:33:46 21° ESE 09:38:03 10° ENE daylight
23 Feb - 11:13:37 10° SW 11:19:29 87° NW 11:25:32 10° NE daylight
23 Feb - 13:01:41 10° W 13:06:47 29° NNW 13:12:01 10° NNE daylight
23 Feb - 14:51:07 10° NW 14:55:17 19° N 14:59:32 10° NE daylight
23 Feb - 16:38:48 10° NNW 16:43:53 27° NNE 16:49:03 10° E daylight
23 Feb - 18:25:16 10° NW 18:31:24 71° NE 18:37:42 10° SE visible
23 Feb - 20:12:17 10° NW 20:17:29 29° WSW 20:22:48 10° SSW visible
24 Feb - 09:39:29 10° S 09:44:29 30° ESE 09:49:36 10° NE daylight
24 Feb - 11:24:45 10° SW 11:30:35 65° NW 11:36:35 10° NE daylight
24 Feb - 13:13:24 10° WNW 13:18:13 25° NNW 13:23:09 10° NNE daylight
24 Feb - 15:02:38 10° NW 15:06:52 19° N 15:11:10 10° NE daylight
24 Feb - 16:49:52 10° NNW 16:55:17 32° NNE 17:00:49 10° E daylight
24 Feb - 18:36:18 10° NW 18:42:29 87° WSW 18:48:49 10° SE visible
24 Feb - 20:23:50 10° WNW 20:28:14 21° WSW 20:32:41 10° SSW visible
25 Feb - 09:49:49 10° S 09:55:18 43° ESE 10:00:55 10° NE daylight
25 Feb - 11:36:03 10° WSW 11:41:46 49° NW 11:47:38 10° NNE daylight
25 Feb - 13:25:10 10° WNW 13:29:42 22° NNW 13:34:20 10° NNE daylight
25 Feb - 15:14:02 10° NW 15:18:25 20° N 15:22:54 10° ENE daylight
25 Feb - 17:00:55 10° NNW 17:06:37 39° NE 17:12:28 10° ESE daylight
25 Feb - 18:47:24 10° NW 18:53:29 64° WSW 18:59:44 10° SSE visible
25 Feb - 20:35:55 10° WNW 20:38:53 14° WSW 20:41:53 10° SW visible
26 Feb - 08:18:50 10° ESE 08:20:57 12° E 08:23:04 10° E daylight
26 Feb - 10:00:27 10° SSW 10:06:12 62° ESE 10:12:06 10° NE daylight
26 Feb - 11:47:32 10° WSW 11:53:01 38° NW 11:58:39 10° NNE daylight
26 Feb - 13:36:54 10° WNW 13:41:14 20° N 13:45:39 10° NE daylight
26 Feb - 15:25:17 10° NNW 15:29:57 22° NNE 15:34:43 10° ENE daylight
26 Feb - 17:11:56 10° NNW 17:17:53 50° NE 17:24:00 10° ESE daylight
26 Feb - 18:58:34 10° NW 19:04:25 46° WSW 19:10:24 10° S visible
27 Feb - 08:27:42 10° SSE 08:31:34 18° ESE 08:35:30 10° ENE daylight
27 Feb - 10:11:18 10° SSW 10:17:11 85° SE 10:23:13 10° NE daylight
27 Feb - 11:59:08 10° W 12:04:21 31° NNW 12:09:43 10° NNE daylight
27 Feb - 13:48:35 10° NW 13:52:48 19° N 13:57:05 10° NE daylight
27 Feb - 15:36:27 10° NNW 15:41:26 25° NNE 15:46:32 10° ENE daylight
27 Feb - 17:22:57 10° NW 17:29:04 65° NE 17:35:21 10° SE daylight
27 Feb - 19:09:50 10° NW 19:15:16 33° WSW 19:20:48 10° S visible
28 Feb - 08:37:29 10° SSE 08:42:16 27° ESE 08:47:09 10° NE daylight
28 Feb - 10:22:22 10° SW 10:28:14 72° NW 10:34:17 10° NE daylight
28 Feb - 12:10:50 10° W 12:15:46 26° NNW 12:20:49 10° NNE daylight
28 Feb - 14:00:10 10° NW 14:04:22 19° N 14:08:39 10° NE daylight
28 Feb - 15:47:33 10° NNW 15:52:52 30° NNE 15:58:18 10° E daylight
28 Feb - 17:33:59 10° NW 17:40:11 86° NE 17:46:32 10° SE daylight
28 Feb - 19:21:18 10° WNW 19:26:02 23° WSW 19:30:50 10° SSW visible
